Location: Clanezzo
(45.7500°N, 9.6000°E)
Time: 20:28:44
(UTC+00:00)

DIWATA 2B (PO-101) - Visible Passes

Search period start: 26 June 2022 00:00
Search period end: 06 July 2022 00:00
Orbit: 585 x 597 km, 98.0° (Epoch: 26 June)

Date Brightness Start Highest point End Pass type
(mag) Time Alt. Az. Time Alt. Az. Time Alt. Az.
26 Jun ? 00:57:12 22° SSE 00:59:49 64° ENE 01:04:00 10° N visible
26 Jun ? 02:33:52 10° WSW 02:35:45 13° W 02:37:40 10° WNW visible
27 Jun ? 01:05:39 24° SSE 01:08:08 79° ENE 01:12:23 10° N visible
27 Jun ? 02:43:35 10° W 02:44:12 10° W 02:44:50 10° W visible
27 Jun ? 23:40:18 10° ENE 23:41:37 11° ENE 23:42:57 10° NE visible
28 Jun ? 01:14:06 26° SSE 01:16:29 85° W 01:20:43 10° NNW visible
28 Jun ? 23:47:47 10° E 23:49:51 13° ENE 23:51:55 10° NNE visible
29 Jun ? 01:22:33 26° S 01:24:49 69° WSW 01:29:03 10° NNW visible
29 Jun ? 23:55:31 10° E 23:58:06 16° ENE 00:00:40 10° NNE visible
30 Jun ? 01:31:00 26° S 01:33:10 56° W 01:37:20 10° NNW visible
01 Jul ? 00:03:23 10° ESE 00:06:21 19° ENE 00:09:19 10° NNE visible
01 Jul ? 01:39:28 25° SSW 01:41:32 45° W 01:45:37 10° NNW visible
02 Jul ? 00:11:21 10° ESE 00:14:36 22° ENE 00:17:54 10° NNE visible
02 Jul ? 01:47:54 23° SSW 01:49:55 37° W 01:53:51 10° NNW visible
03 Jul ? 00:19:48 12° ESE 00:22:53 27° ENE 00:26:25 10° N visible
03 Jul ? 01:56:22 21° SW 01:58:18 30° W 02:02:03 10° NNW visible
04 Jul ? 00:28:16 15° SE 00:31:09 32° ENE 00:34:54 10° N visible
04 Jul ? 02:04:49 19° SW 02:06:41 25° W 02:10:13 10° NW visible
05 Jul ? 00:36:43 18° SE 00:39:26 38° ENE 00:43:22 10° N visible
05 Jul ? 02:13:17 16° SW 02:15:05 21° W 02:18:19 10° NW visible
